Location: Barcelona
(41.3830°N, 2.1830°E)
Time: 13:11:40
(UTC+01:00)

ISS - Pass Details

Date: 08 December 2019
Orbit: 411 x 421 km, 51.6° (Epoch: 11 December)

Event Time Altitude Azimuth Distance (km) Brightness Sun altitude
Rises 20:00:40 0° 296° (WNW) 2,361 0.9 -29.0°
Reaches altitude 10° 20:02:58 10° 283° (WNW) 1,496 -0.1 -29.4°
Enters shadow 20:03:57 16° 271° (W) 1,178 -0.7 -29.6°
